Location: �terpigny
(49.8910°N, 2.9249°E)
Time: 05:14:11
(UTC+00:00)

Cosmos 1908 - Pass Details

Date: 06 June 2022
Orbit: 505 x 523 km, 82.5° (Epoch: 03 July)

Event Time Altitude Azimuth Distance (km) Brightness Sun altitude
Rises 23:53:18 0° 329° (NNW) 2,622 7.8 -17.4°
Reaches altitude 10° 23:57:07 10° 290° (WNW) 1,730 6.1 -17.3°
Maximum altitude 23:57:54 11° 278° (W) 1,695 5.9 -17.3°
Drops below altitude 10° 23:58:41 10° 266° (W) 1,728 5.8 -17.3°
Enters shadow 23:59:34 - 253° (WSW) 1,841 5.8 -17.3°
